Christchurch Automated, New Zealand

1:05 AM NZST on August 30, 2016 (GMT +1200)
Christchurch International

Weather History for NZCH - November, 2012

Change the Weather History Date:

Monday, November 19, 2012

  Actual Average Record
Temperature  
Mean Temperature 50 °F -  
Max Temperature 57 °F 63 °F 82 °F (2010)
Min Temperature 44 °F 44 °F 33 °F (2015)
Degree Days  
Heating Degree Days 14    
Moisture  
Dew Point 43 °F    
Average Humidity 73    
Maximum Humidity 93    
Minimum Humidity 55    
Precipitation  
Precipitation 0.00 in - - ()
Sea Level Pressure  
Sea Level Pressure 29.98 in    
Wind  
Wind Speed 7 mph ()    
Max Wind Speed 17 mph    
Max Gust Speed -    
Visibility 6.2 miles    
Events      
Averages and records for this station are not official NWS values.
T = Trace of Precipitation, MM = Missing Value Source: Averaged Metar Reports

Daily Weather History Graph

Daily Weather History Graph

Search for Another Location

Airport or City:

Trip Planner

Search our weather history database for the weather conditions in past years. The results will help you decide how hot, cold, wet, or windy it might be!

Date:

Astronomy

Nov. 19, 2012 Rise Set
Actual Time 5:51 AM NZDT 8:39 PM NZDT
Civil Twilight 5:18 AM NZDT 9:12 PM NZDT
Nautical Twilight 4:36 AM NZDT 9:54 PM NZDT
Astronomical Twilight 3:47 AM NZDT 10:43 PM NZDT
Moon 11:09 AM NZDT (11/19) 12:42 AM NZDT (11/19)
Length of Visible Light 15h 54m
Length of Day
14h 47m
Waxing Crescent, 32% of the Moon is Illuminated
Nov 19
Waxing Crescent
Nov 21
First Quarter
Nov 29
Full
Dec 7
Last Quarter
Dec 13
New

Hourly Weather History & Observations

Time (NZDT) Temp. Windchill Dew Point Humidity Pressure Visibility Wind Dir Wind Speed Gust Speed Precip Events Conditions
12:00 AM 50.0 °F - 42.8 °F 76% 29.95 in 6.2 mi WSW 6.9 mph - N/A   Mostly Cloudy
1:00 AM 46.4 °F 43.5 °F 41.0 °F 81% 29.95 in 6.2 mi WSW 5.8 mph - N/A   Scattered Clouds
2:00 AM 44.6 °F 42.2 °F 41.0 °F 87% 29.95 in 6.2 mi WNW 4.6 mph - N/A   Partly Cloudy
3:00 AM 44.6 °F 43.1 °F 42.8 °F 93% 29.95 in 6.2 mi WNW 3.5 mph - N/A   Partly Cloudy
4:00 AM 46.4 °F 45.2 °F 42.8 °F 87% 29.95 in 6.2 mi WNW 3.5 mph - N/A   Partly Cloudy
5:00 AM 46.4 °F - 44.6 °F 93% 29.95 in 6.2 mi West 2.3 mph - N/A   Partly Cloudy
6:00 AM 46.4 °F - 44.6 °F 93% 29.95 in 6.2 mi West 1.2 mph - N/A   Mostly Cloudy
7:00 AM 48.2 °F - 46.4 °F 93% 29.98 in 6.2 mi Calm Calm - N/A   Mostly Cloudy
8:00 AM 50.0 °F - 42.8 °F 76% 29.98 in 6.2 mi SSE 2.3 mph - N/A   Mostly Cloudy
9:00 AM 53.6 °F - 42.8 °F 67% 29.98 in 6.2 mi ENE 5.8 mph - N/A   Mostly Cloudy
10:00 AM 55.4 °F - 44.6 °F 67% 30.01 in 6.2 mi NE 5.8 mph - N/A   Mostly Cloudy
11:00 AM 57.2 °F - 44.6 °F 63% 30.01 in 6.2 mi ENE 8.1 mph - N/A   Mostly Cloudy
12:00 PM 57.2 °F - 44.6 °F 63% 30.01 in 6.2 mi ENE 10.4 mph - N/A   Mostly Cloudy
1:00 PM 57.2 °F - 42.8 °F 59% 29.98 in 6.2 mi ENE 13.8 mph - N/A   Mostly Cloudy
2:00 PM 57.2 °F - 41.0 °F 55% 29.98 in 6.2 mi ENE 12.7 mph - N/A   Mostly Cloudy
3:00 PM 57.2 °F - 42.8 °F 59% 29.98 in 6.2 mi ENE 15.0 mph - N/A   Mostly Cloudy
4:00 PM 57.2 °F - 41.0 °F 55% 29.95 in 6.2 mi ENE 15.0 mph - N/A   Overcast
5:00 PM 57.2 °F - 42.8 °F 59% 29.95 in 6.2 mi NE 16.1 mph - N/A   Mostly Cloudy
6:00 PM 55.4 °F - 41.0 °F 58% 29.95 in 6.2 mi ENE 17.3 mph - N/A   Mostly Cloudy
7:00 PM 53.6 °F - 42.8 °F 67% 29.95 in 6.2 mi ENE 15.0 mph - N/A   Mostly Cloudy
8:00 PM 53.6 °F - 44.6 °F 72% 29.98 in 6.2 mi East 15.0 mph - N/A   Overcast
9:00 PM 53.6 °F - 44.6 °F 72% 30.01 in 6.2 mi East 12.7 mph - N/A   Overcast
10:00 PM 53.6 °F - 46.4 °F 77% 30.04 in 6.2 mi East 10.4 mph - N/A   Overcast
11:00 PM 53.6 °F - 46.4 °F 77% 30.04 in 6.2 mi ENE 6.9 mph - N/A   Overcast